Location: Caltech
(34.1382°N, 118.1253°W)
Time: 22:21:40
(UTC-07:00)

OAO 2 Rocket - Visible Passes

Search period start: 28 August 2016 00:00
Search period end: 07 September 2016 00:00
Orbit: 677 x 746 km, 35.0° (Epoch: 28 August)

Date Brightness Start Highest point End Pass type
(mag) Time Alt. Az. Time Alt. Az. Time Alt. Az.
28 Aug 3.3 20:54:52 10° W 20:59:53 81° N 21:01:47 39° E visible
28 Aug 5.8 22:39:41 10° W 22:40:45 16° W 22:40:45 16° W visible
29 Aug 3.4 19:57:14 10° W 20:02:13 81° N 20:07:10 11° E visible
29 Aug 3.7 21:42:03 10° W 21:46:08 58° W 21:46:08 58° W visible
30 Aug 3.2 20:44:27 10° W 20:49:28 88° N 20:51:31 37° E visible
30 Aug 5.7 22:29:20 10° W 22:30:29 17° W 22:30:29 17° W visible
31 Aug 3.4 19:46:50 10° W 19:51:48 81° N 19:56:52 10° E visible
31 Aug 3.7 21:31:38 10° W 21:35:52 53° SW 21:35:52 53° SW visible
01 Sep 3.3 20:34:01 10° W 20:38:59 75° SSW 20:41:17 32° ESE visible
01 Sep 5.8 22:19:10 10° W 22:20:14 15° W 22:20:14 15° W visible
02 Sep 3.3 19:36:25 10° W 19:41:22 88° S 19:46:24 10° E visible
02 Sep 4.1 21:21:20 10° W 21:25:41 39° SSW 21:25:41 39° SSW visible
03 Sep 3.7 20:23:37 10° W 20:28:26 54° SSW 20:31:10 25° SE visible
03 Sep 5.9 22:09:31 10° WSW 22:10:08 12° WSW 22:10:08 12° WSW visible
04 Sep 4.8 21:11:16 10° W 21:15:17 25° SSW 21:15:40 25° SSW visible
05 Sep 4.4 20:13:20 10° W 20:17:49 35° SSW 20:21:16 16° SSE visible
06 Sep 5.5 21:01:53 10° WSW 21:04:31 14° SW 21:05:55 13° SSW visible
